sat.trackr.live / text

‹ back to catalog

STARLINK-37192

NORAD 68342 · 2026-059X

PAYLOAD ACTIVE UNKNOWN

§ Identity

Operator
Country
US
Launch date
2026-03-22
Launch site
AFETR
Launch vehicle
Mass (kg)
RCS (m²)

Purposes: comms

External: N2YO · Heavens-Above · Gunter

§ Orbital elements

Epoch: 2026-09-20T04:35:06.317376Z

Period
93.85 min
Inclination
53.1581°
Eccentricity
0.0001048
Mean motion
15.34429171 rev/d
Perigee alt
461.9 km
Apogee alt
463.3 km
Semi-major
6,840.8 km
B*
5.0688e-4
RAAN
157.0917°
Arg perigee
83.6674°
Mean anomaly
276.4448°
Rev number
2,806

§ Raw data

STARLINK-371921 68342U 26059X   26263.19104534  .00016804  00000+0  50688-3 0  99992 68342  53.1581 157.0917 0001048  83.6674 276.4448 15.34429171 28063

JSON: /api/v1/satellites/68342 · /tle

For live sub-satellite position, see the globe view (requires WebGL).

§ Visibility from observer

Set your observer location to see the next 7 days of passes ≥ 10°. The values pass through the URL so the page stays shareable.

No JS? Fill the form by hand. The geolocation button needs JavaScript.